Regional Weather Roundup
Issued by NWS Newport/Morehead, NC

Current Version | Previous Version | Text Only | Print | Product List | Glossary Off
Versions: 1 2 3 4 5 6 7 8 9 10 11 12 13 14 15 16 17 18 19 20 21 22 23 24 25 26 27 28 29 30 31 32 33 34 35 36 37 38 39 40 41 42 43 44 45 46 47 48 49 50

000
ASUS42 KMHX 271825
RWRMHX
WEATHER ROUNDUP FOR EASTERN NORTH CAROLINA
NATIONAL WEATHER SERVICE NEWPORT/MOREHEAD CITY NC
200 PM EDT MON JUN 27 2016

NOTE: "FAIR" INDICATES FEW OR NO CLOUDS BELOW 12,000 FEET
WITH NO SIGNIFICANT WEATHER AND/OR OBSTRUCTIONS TO VISIBILITY

NCZ015>017-031-032-045>047-102-103-271900-
NORTH COAST

CITY           SKY/WX    TMP DP  RH WIND       PRES   REMARKS
EDENTON        SUNNY     85  63  47 CALM      30.08F
ELIZABETH CITY SUNNY     84  58  40 CALM      30.07F
KITTY HAWK     MOCLDY    84  69  61 E5        30.07F
MANTEO         MOSUNNY   78  72  79 S6        30.08F

$$

NCZ045>047-081-094-103-104-271900-
CENTRAL COAST

CITY           SKY/WX    TMP DP  RH WIND       PRES   REMARKS
FRISCO         PTSUNNY   82  70  66 VRB5      30.09F

$$

NCZ095-097-098-100-101-271900-
SOUTHERN COAST

CITY           SKY/WX    TMP DP  RH WIND       PRES   REMARKS
BEAUFORT       LGT RAIN  81  69  67 S7        30.08F
CEDAR ISLAND   NOT AVBL
JACKSONVILLE   MOSUNNY   88  67  49 VRB3      30.06F
PINEY ISLAND   CLEAR    N/A N/A N/A E9        30.08F
WILMINGTON     CLOUDY    84  70  62 VRB5      30.07F


$$

NCZ011>013-027>030-043-044-078>080-089-090>093-098-271900-
COASTAL PLAIN

CITY           SKY/WX    TMP DP  RH WIND       PRES   REMARKS
AHOSKIE        SUNNY     82  66  58 S7        30.06F
CLINTON        SUNNY     89  65  44 SW3       30.06F
ELIZABETHTOWN  MOSUNNY   85  66  53 CALM      30.06F
GOLDSBORO      PTSUNNY   90  60  36 VRB6      30.04F
GREENVILLE     MOSUNNY   86  66  51 SW5       30.08F
HAVELOCK       PTSUNNY   89  64  43 VRB6      30.08F
KENANSVILLE    SUNNY     88  56  33 CALM      30.06F HAZE
KINSTON        MOSUNNY   90  63  40 CALM      30.07F
NEW BERN       SUNNY     88  64  44 NE9       30.08F
RICHLANDS      PTSUNNY   89  65  44 VRB3      30.07F
ROCKY MOUNT    PTSUNNY   84  67  56 CALM      30.07F
WASHINGTON     SUNNY     84  65  52 S3        30.06F
WHITEVILLE     MOSUNNY   86  69  56 NE3       30.06F

$$

AMZ130-135-150-152-154-156-158-170-250-252-270-ANZ085-086-088-633-658-670-271900-
MARINE OBSERVATIONS

STATION/POSITION TIME  TEMP    WIND        PRES    WAVE   SWELL
                       AIR SEA DIR/SP/G            HT/PER HT/PER
                 (UTC) (F)     (DEG/KT/KT) (MB)    (FT/S) (FT/S)
CHESAPEAKE LIGHT NOT AVBL
64 E VA BEACH    1750   77 75  140/  4/  6 1018.5    3/ 8   2/ 8
DUCK             1800   79 73  100/  5/  7 1018.0
2 E DUCK         1811      76                N/A     3/ 8
OREGON INLET     1800   79 76   90/  6/  8 1018.4
13E OREGON INLT  1800      75                N/A     3/ 7   3/ 7
HATTERAS CG      1800   81 79  220/  3/  5 1018.4
DIAMOND BUOY     1750   80 83  180/  4/  6 1018.7    3/ 8   3/ 8
CAPE LOOKOUT     1800   80     140/  6/  7 1018.2
BEAUFORT LAB     1800   80 78  180/  6/  7 1017.8
30 SE NEW RVR IN 1808   82 82  140/  4/  6 1018.8
30 SE NEW RVR IN 1755      84                N/A     2/ 9
27 SE WRIGHTSVLE 1808      81  130/  4/  6 1018.5
5 SE WRIGHTSVLE  1808   81 82  140/  4/  8 1018.9
225 S CAPE HAT   1750   79 82   CALM  /  2 1017.8    3/ 7   3/ 7
41 SE CHARLESTON 1750   81 82   60/ 10/ 10 1017.6    3/ 8   2/ 8

$$




USA.gov is the U.S. government's official web portal to all federal, state and local government web resources and services.